Location: Demmingen
(48.6757°N, 10.4375°E)
Time: 07:37:35
(UTC+00:00)

CZ-2C R/B - Pass Details

Date: 06 August 2024
Orbit: 703 x 903 km, 98.2° (Epoch: 16 September)

Event Time Altitude Azimuth Distance (km) Brightness Sun altitude
Rises 01:18:11 0° 15° (NNE) 3,142 7.6 -20.0°
Reaches altitude 10° 01:20:25 10° 17° (NNE) 2,235 6.6 -19.8°
Maximum altitude 01:25:19 75° 103° (ESE) 781 3.0 -19.4°
Enters shadow 01:27:36 33° 183° (S) 1,255 3.6 -19.2°
